Starlink 4787

operational
NORAD ID: 53904 Int'l Des: 2022-119 Owner: SPXS Country: US Constellation: starlink
LEOCIRCULAR

关于 Starlink 4787

正在加载描述...

实时位置

正在加载3D地球...

即将过境

高度历史

Altitude vs Time

uPlot chart will show altitude changes over time

两行轨道根数

1 53904U 22119U 25352.23705049 .00000047 00000-0 21029-4 0 9992
2 53904 53.2192 329.3755 0001618 80.5252 279.5923 15.08840500179394
Epoch: Dec 18, 2025 • Age: 9 hours

当前状态

高度 559.4 km
速度 7.58 km/s
星下点 -53.31°S, 75.8°W
发射日期 Sep 24, 2022
运行时间 3.2 years
类型 internet

技术详情

分类 Payload
质量 305.00 kg
干质量 290.00 kg
总质量 305.00 kg
长度 0.20 m
直径 2.80 m
跨度 9.00 m
形状 Box + pan
制造商 SPXS
平台类型 Starlink
阶段状态 In Orbit
所有者/国家 SPXS/US

大型星座

Loading constellations...